BAW8DS KLAX-EGLL

Flight info

Callsign BAW8DS
Flight time N/A
Altitude 35000
Route OSHNN1 BEALE Q842 WINEN DCT MLF DCT FBR DCT DIK Q945 SEGAP DCT KAIIN DCT 56N090W 61N080W 65N070W/M084F350 DCT DARUB DCT 67N050W 67N040W 65N030W 63N020W DCT BALIX/N0480F350 DCT NINEX DCT AKOMU DCT VAMEB DCT NUGRA
Aircraft B77W/H-SDE1E2E3FGHIJ2J3J4J5M1RWXY/LB1D1

Departure

Time 2026-05-03 22:19
Airport Los Angeles International Airport (KLAX)

Arrival

Time N/A
Airport London Heathrow Airport (EGLL)
Time Latitude Longitude Altitude Speed Heading
2026-05-03 22:19 33.91541 -118.48591 2083 ft 237 kts 221°
2026-05-03 22:19 33.90324 -118.49990 2553 ft 246 kts 229°
2026-05-03 22:19 33.89224 -118.51573 3165 ft 250 kts 230°
2026-05-03 22:19 33.88114 -118.53205 3825 ft 253 kts 229°
2026-05-03 22:20 33.86961 -118.54850 4377 ft 258 kts 223°
2026-05-03 22:20 33.85430 -118.55960 4779 ft 261 kts 188°
2026-05-03 22:20 33.83648 -118.55862 5452 ft 255 kts 166°
2026-05-03 22:20 33.81907 -118.55365 6032 ft 262 kts 168°
2026-05-03 22:21 33.80110 -118.54887 6761 ft 266 kts 168°
2026-05-03 22:21 33.78301 -118.54402 7533 ft 267 kts 169°
2026-05-03 22:21 33.76473 -118.53908 8326 ft 269 kts 169°
2026-05-03 22:21 33.74659 -118.53418 9052 ft 272 kts 169°
2026-05-03 22:22 33.72793 -118.52914 9792 ft 276 kts 170°
2026-05-03 22:22 33.70937 -118.52251 10335 ft 284 kts 154°
2026-05-03 22:22 33.69384 -118.50622 10530 ft 315 kts 126°
2026-05-03 22:22 33.68461 -118.48130 10687 ft 339 kts 112°
2026-05-03 22:23 33.67679 -118.45359 10889 ft 362 kts 112°
2026-05-03 22:23 33.66837 -118.42414 11203 ft 379 kts 112°
2026-05-03 22:23 33.65967 -118.39427 11795 ft 389 kts 112°
2026-05-03 22:23 33.65055 -118.36337 12504 ft 394 kts 112°
2026-05-03 22:24 33.64314 -118.33164 13110 ft 401 kts 99°
2026-05-03 22:24 33.64320 -118.29772 13627 ft 411 kts 89°
2026-05-03 22:24 33.64464 -118.26316 14238 ft 417 kts 91°
2026-05-03 22:24 33.64502 -118.22811 14885 ft 420 kts 91°
2026-05-03 22:25 33.64990 -118.19323 15250 ft 435 kts 70°
2026-05-03 22:25 33.66566 -118.16195 15786 ft 444 kts 47°
2026-05-03 22:25 33.68913 -118.13778 16396 ft 444 kts 34°
2026-05-03 22:25 33.71454 -118.11590 16869 ft 454 kts 34°
2026-05-03 22:26 33.74026 -118.09349 17455 ft 461 kts 34°
2026-05-03 22:26 33.76601 -118.07077 18085 ft 466 kts 34°
2026-05-03 22:26 33.79235 -118.04732 18622 ft 472 kts 34°
2026-05-03 22:26 33.81882 -118.02358 19163 ft 477 kts 34°
2026-05-03 22:27 33.84563 -117.99945 19712 ft 483 kts 33°
2026-05-03 22:27 33.87259 -117.97517 20252 ft 488 kts 33°
2026-05-03 22:27 33.89992 -117.95056 20835 ft 491 kts 33°
2026-05-03 22:27 33.92745 -117.92564 21330 ft 497 kts 33°
2026-05-03 22:28 33.95518 -117.90030 21794 ft 503 kts 33°
2026-05-03 22:28 33.98322 -117.87459 22250 ft 509 kts 33°